Regional Weather Roundup
Issued by NWS Midland/Odessa, TX

Skip options and go directly to product.
Home | Oldest Version | Previous Version | Current Version | All | Graphics & Text | Save Text | Print | Product List | Glossary On

Skip product version selection by date and time.   
759
ASUS44 KMAF 282010
RWRMAF
MIDLAND AREA WEATHER ROUNDUP
NATIONAL WEATHER SERVICE MIDLAND TX
200 PM CST SAT FEB 28 2015

...IN SOUTHWEST TEXAS AND SOUTHEAST NEW MEXICO...

CITY           SKY/WX    TMP DP  RH WIND       PRES   REMARKS
ALPINE         SUNNY     58  38  46 NE7       30.07F
ANDREWS        CLOUDY    26  26  99 SE5       30.14F WCI  20
ARTESIA        CLOUDY    27  27 100 S12G17    30.09F WCI  16
BIG SPRING     CLOUDY    28  25  89 SE6       30.21F WCI  22
CARLSBAD       CLOUDY    30  24  78 SE12      30.09F WCI  20
DRYDEN           N/A     36  35  96 E6        30.15F WCI  31
FORT STOCKTON  CLOUDY    37  36  96 E10       30.10F WCI  30
GUAD PASS      NOT AVBL
HOBBS          CLOUDY    27  27 100 SE7       30.10F WCI  19
MARFA          SUNNY     54  34  47 S10       30.05F
MIDLAND AIRPK  CLOUDY    29  29 100 SE5       30.16F FOG     WCI  24
MIDLAND INTL   CLOUDY    28  26  92 E10       30.15F FOG     WCI  19
ODESSA         CLOUDY    29  26  89 SE9       30.14F FOG     WCI  20
PECOS          CLOUDY    29  27  93 CALM      30.16F FOG
PRESIDIO       FAIR      54  35  47 E8        30.03F
SEMINOLE       CLOUDY   N/A N/A N/A SE6       30.14F HAZE
SNYDER         CLOUDY   N/A N/A N/A SE5       30.21F HAZE
WINK           CLOUDY    31  25  78 S5        30.13F WCI  26
$$
...OTHER STATIONS IN TEXAS...

CITY           SKY/WX    TMP DP  RH WIND       PRES   REMARKS
ABILENE        CLOUDY    27  24  89 SE5       30.25F FOG     WCI  22
AMARILLO       CLOUDY    21  18  88 S14       30.11F WCI   8
AUSTIN         DRIZZLE   37  37 100 N10       30.25F FOG     WCI  30
BROWNSVILLE    LGT RAIN  50  48  93 NW12      30.14F FOG
CORPUS CHRISTI LGT RAIN  55  54  96 N9        30.15F FOG
DALLAS FTW     CLOUDY    30  27  88 E8        30.31F WCI  22
DEL RIO        CLOUDY    42  37  82 E6        30.20F WCI  38
EL PASO        MOSUNNY   53  28  38 SE7       29.95F
HOUSTON INT    CLOUDY    54  41  61 E9        30.25F
LUBBOCK        CLOUDY    21  19  92 S8        30.13F FOG     WCI  11
SAN ANGELO     CLOUDY    29  28  96 E8        30.22F WCI  21
SAN ANTONIO    LGT RAIN  38  36  92 N8        30.22F VSB 1   WCI  32
WACO           LGT RAIN  33  31  92 N10       30.29F WCI  25
WICHITA FALLS  NOT AVBL
$$
...OTHER LOCATIONS IN NEW MEXICO...

CITY           SKY/WX    TMP DP  RH WIND       PRES   REMARKS
ALAMAGORDO     MOSUNNY   54  28  37 S12       29.96F
ALBUQUERQUE    PTSUNNY   33  24  69 NW5       29.93F WCI  29
CANNON AFB     CLOUDY    22  20  94 SW13      30.03F WCI  10
CLOVIS         CLOUDY    19  18  93 SW13      30.05F WCI   7
HOLLOMAN AFB   MOSUNNY   52  27  38 S13       29.94F
ROSWELL        CLOUDY    26  21  81 S10       30.07F WCI  16
RUIDOSO        SUNNY     48  30  49 SW29G41   29.92F WCI  40
SANTA FE       CLOUDY    29  22  75 SE8       29.89F WCI  21
TRUTH OR CONSE PTSUNNY   54  30  40 S18       29.88F
TUCUMCARI      CLOUDY    25  20  81 SW16      30.02F WCI  12
$$

USA.gov is the U.S. government's official web portal to all federal, state and local government web resources and services.